Flag for U.S.A. Weather past 2 weeks in Oakland, California, U.S.A.

61 °F

Passing clouds.

Feels Like: 61 °F
Forecast: 57 / 71 °F
Wind: 5 mph from Northwest

Location: Metro Oakland International Airport

Current Time: Oct 7, 2015 at 3:18:12 AM

Latest Report: Oct 7, 2015 at 3:00 AM

Visibility: 10 mi

Pressure: 30.12 "Hg

Humidity: 77%

Dew point: 54 °F

Location of OaklandLocation

Historic Weather in Oakland — Graph


Oakland temperature yesterday

Maximum temperature yesterday: 73 °F (at 12:53 PM)
Minimum temperature yesterday: 58 °F (at 1:53 AM)
Average temperature yesterday: 64 °F

Past Weeks' High & Low Weather Summary

High88 °F (Sep 24, 2:53 PM)93% (Sep 28, 4:53 AM)30.12 "Hg (Sep 28, 4:53 AM)
Low53 °F (Sep 23, 6:53 AM)23% (Sep 24, 3:53 PM)29.46 "Hg (Oct 3, 9:53 PM)
Average64 °F72%29.89 "Hg
* Reported Sep 22 1:53 AM — Oct 7 1:53 AM, Oakland, Weather by CustomWeather, © 2015

Note: Actual official high and low records may vary slightly from our data, if they occured in-between our weather recording intervals... More about our weather records


Oakland weather history for previous 24 hours

Time TempWeatherWind HumidityBarometerVisibility
1:53 AM
Wed, Oct 7
60 °FPassing clouds.5 mph80%30.11 "Hg10 mi
12:53 AM61 °FPassing clouds.7 mph81%30.12 "Hg10 mi
11:53 PM
Tue, Oct 6
62 °FPassing clouds.8 mph78%30.12 "Hg10 mi
10:53 PM62 °FPassing clouds.12 mph78%30.11 "Hg10 mi
9:53 PM63 °FPassing clouds.10 mph75%30.09 "Hg10 mi
8:53 PM63 °FPassing clouds.8 mph75%30.08 "Hg10 mi
7:53 PM63 °FPassing clouds.6 mph75%30.07 "Hg10 mi
6:53 PM64 °FScattered clouds.12 mph73%30.06 "Hg10 mi
5:53 PM68 °FScattered clouds.17 mph65%30.07 "Hg10 mi
4:53 PM70 °FScattered clouds.14 mph61%30.08 "Hg10 mi
3:53 PM71 °FPassing clouds.15 mph61%30.07 "Hg10 mi
2:53 PM73 °FPassing clouds.14 mph57%30.07 "Hg10 mi
1:53 PM73 °FPassing clouds.8 mph53%30.09 "Hg10 mi
12:53 PM73 °FPassing clouds.7 mph53%30.11 "Hg10 mi
11:53 AM70 °FPassing clouds.6 mph59%30.12 "Hg10 mi
10:53 AM69 °FPassing clouds.5 mph63%30.12 "Hg10 mi
9:53 AM67 °FScattered clouds.5 mph66%30.11 "Hg10 mi
8:53 AM65 °FScattered clouds.3 mph78%30.10 "Hg10 mi
7:53 AM60 °FPassing clouds.No wind90%30.08 "Hg10 mi
6:53 AM58 °FOvercast.No wind90%30.06 "Hg10 mi
5:53 AM59 °FPassing clouds.No wind90%30.04 "Hg10 mi
4:53 AM59 °FClear.No wind90%30.02 "Hg10 mi
3:53 AM58 °FClear.3 mph87%30.00 "Hg10 mi
Weather by CustomWeather, © 2015

See weather overviewHow to use our weather pages